AEE221 EDDH-LGAV

Flight info

Callsign AEE221
Flight time N/A
Altitude 39000
Route AMLUH2G AMLUH M852 DENIX DCT ZUCKA DCT SODRO DCT RUDNO DCT LAMSI DCT LIMRA DCT GOLVA DCT MIRSO DCT PETOV DCT ZAG DCT AGLIB DCT PODOB DCT MEDUX UM867 KOGAT DCT TALAS DCT SIGFO UM749 ROPOX ROPOX1Q
Aircraft A20N/M-SDE2E3FGHIRWXY/LB1

Departure

Time 2026-05-04 09:19
Airport Hamburg Helmut Schmidt Airport (EDDH)

Arrival

Time N/A
Airport Athens Eleftherios Venizelos International Airport (LGAV)
Time Latitude Longitude Altitude Speed Heading
2026-05-04 09:01 53.62881 10.00233 51 ft 0 kts 122°
2026-05-04 09:14 53.62882 10.00230 51 ft 1 kts 122°
2026-05-04 09:14 53.62886 10.00221 51 ft 1 kts 122°
2026-05-04 09:14 53.62889 10.00212 50 ft 1 kts 122°
2026-05-04 09:15 53.62894 10.00198 48 ft 1 kts 122°
2026-05-04 09:15 53.62900 10.00183 51 ft 1 kts 123°
2026-05-04 09:15 53.62905 10.00171 51 ft 1 kts 128°
2026-05-04 09:15 53.62912 10.00157 48 ft 1 kts 133°
2026-05-04 09:17 53.62812 9.99826 51 ft 11 kts 279°
2026-05-04 09:18 53.62906 9.99708 49 ft 40 kts 334°
2026-05-04 09:18 53.63378 9.99295 51 ft 108 kts 333°
2026-05-04 09:18 53.64186 9.98584 68 ft 152 kts 330°
2026-05-04 09:18 53.65179 9.97721 394 ft 168 kts 330°
2026-05-04 09:19 53.66240 9.96835 1047 ft 179 kts 332°
2026-05-04 09:19 53.67458 9.96051 1873 ft 197 kts 340°
2026-05-04 09:19 53.68845 9.95561 2859 ft 210 kts 348°
2026-05-04 09:19 53.70313 9.95252 3995 ft 216 kts 351°
2026-05-04 09:20 53.71832 9.95034 5122 ft 221 kts 353°
2026-05-04 09:20 53.73359 9.95529 6100 ft 234 kts 24°
2026-05-04 09:20 53.74605 9.97379 6894 ft 247 kts 56°
2026-05-04 09:20 53.75158 10.00137 7722 ft 253 kts 88°
2026-05-04 09:21 53.74843 10.03044 8546 ft 254 kts 118°
2026-05-04 09:21 53.73901 10.05559 9401 ft 254 kts 135°
2026-05-04 09:21 53.72793 10.07917 10090 ft 269 kts 129°
2026-05-04 09:21 53.71738 10.10686 10500 ft 293 kts 124°
2026-05-04 09:22 53.70684 10.13793 10880 ft 317 kts 122°
2026-05-04 09:22 53.69555 10.17144 11221 ft 338 kts 127°
2026-05-04 09:22 53.67895 10.20049 11580 ft 350 kts 150°
2026-05-04 09:22 53.65705 10.21757 12365 ft 346 kts 168°
2026-05-04 09:23 53.63376 10.22847 13220 ft 349 kts 169°
2026-05-04 09:23 53.61018 10.23931 14038 ft 353 kts 169°
2026-05-04 09:23 53.58635 10.25023 14826 ft 355 kts 170°
2026-05-04 09:23 53.56236 10.26124 15604 ft 358 kts 170°